[[{"header":{"parameterUnit":"m.s-1","parameterCategory":1,"la1":30.2991,"la2":30.254,"lo1":-89.0895,"lo2":-89.0444,"dy":0.0017,"dx":0.0017,"nx":28,"ny":28,"refTime":"2025-07-27T21:00:00:Z","depth":0,"parameterNumber":2,"parameterNumberName":"U-component_of_WINDS"},"data":[0,0,0,0,0,0,0,0,0,0,0,0,0,0,0,0,0,0,0,0,0,0,0,0,0,0,0,0,0,0,0,0,0,0,0,0,0,0,0,0,0,0,0,0,0,0,0,0,0,0,0,0,0,0,0,0,0,0,4.3044,4.3046,0,4.3164,4.3165,4.3167,4.3132,4.313,4.3127,4.3125,4.3243,4.3248,4.3254,0,0,0,0,0,0,0,0,0,0,0,0,0,4.2786,4.2791,4.3044,4.3046,4.3047,4.3164,4.3165,4.3167,4.3133,4.313,4.3127,4.3124,4.3241,4.3248,4.3254,0,0,0,0,0,0,0,0,0,0,0,0,0,4.2901,4.2793,4.3044,4.3044,4.3046,4.3163,4.3165,4.3167,4.3133,4.313,4.3126,4.3123,4.3239,4.3247,4.3255,4.3379,0,0,4.328,4.3284,0,0,0,0,0,0,0,0,4.2895,4.2911,4.3043,4.3045,4.3046,4.313,4.3118,4.3238,4.3134,4.31,4.3125,4.3121,4.3208,4.3219,4.3249,4.3384,4.3389,4.3281,4.3286,4.3289,4.3292,0,0,0,0,0,0,0,4.2887,4.2906,4.3091,4.3045,4.3047,4.3039,4.3051,4.314,4.3173,4.3103,4.31,4.3115,4.3208,4.3241,4.3251,4.3391,4.3281,4.3288,4.3293,4.3296,4.364,4.3644,0,0,0,0,0,0,4.2878,4.2899,4.3088,4.3095,4.296,4.3046,4.306,4.3106,4.3172,4.3178,4.3118,4.3113,4.3229,4.3242,4.3255,4.3408,4.3289,4.3297,4.3301,4.3635,4.364,4.3645,0,0,0,0,0,0,4.2873,4.2895,4.3083,4.2997,4.302,4.3055,4.3107,4.3111,4.3143,4.3184,4.3189,4.3146,4.3227,4.3244,4.335,4.3411,4.33,4.3308,4.363,4.3637,4.3643,4.3711,0,0,0,0,0,0,4.2865,4.2893,4.294,4.2998,4.3025,4.3175,4.3111,4.3116,4.3158,4.3153,4.3211,4.3217,4.3225,4.3338,4.3358,4.342,4.3314,4.3625,4.3633,4.3641,4.3703,4.3719,4.3732,0,0,0,0,0,4.2856,4.2952,4.2943,4.2966,4.3084,4.3179,4.3194,4.3202,4.3163,4.3211,4.3238,4.3215,4.3402,4.3349,4.3371,4.3437,4.3621,4.3631,4.364,4.3697,4.3716,4.3732,0,0,0,0,0,0,4.2897,4.296,4.295,4.3067,4.3119,4.3173,4.3233,4.3221,4.3283,4.3275,4.3282,4.3295,4.3405,4.3431,4.3372,4.3563,4.3506,4.352,4.3541,4.3559,4.3573,4.3564,4.3321,0,0,0,0,0,4.2921,4.2994,4.3043,4.3143,4.3169,4.3197,4.3239,4.3242,4.3294,4.3315,4.3349,4.34,4.3471,4.3516,4.3583,4.3708,4.3721,4.3764,4.3779,4.379,4.3802,4.3874,4.3895,4.3676,4.3676,4.3676,0,0,4.2968,4.3012,4.3056,4.3152,4.3192,4.3268,4.3215,4.3296,4.3352,4.3326,4.3429,4.3457,4.3515,4.3632,4.3685,4.3658,4.3867,4.3802,4.3811,4.3817,4.3886,4.3907,4.3925,4.3683,4.3682,4.3681,0,0,4.3094,4.3134,4.3223,4.3265,4.3328,4.3347,4.3369,4.3427,4.3445,4.355,4.3533,4.3601,4.3721,4.3764,4.3802,4.3952,4.3935,4.3974,4.4048,4.4118,4.4136,4.4151,4.4207,4.4226,4.3986,4.3986,4.3986,0,4.3145,4.3259,4.3269,4.3354,4.3398,4.3382,4.3473,4.3513,4.3594,4.3625,4.3594,4.3748,4.3786,4.3915,4.3952,4.3983,4.4009,4.3966,4.4132,4.4148,4.4162,4.4216,4.4236,4.399,4.399,4.3989,4.3989,0,4.332,4.3399,4.3464,4.3546,4.3597,4.3684,4.3709,4.376,4.376,4.3783,4.3892,4.3938,4.4016,4.4047,4.4046,4.4178,4.4159,4.413,4.4073,4.4188,4.4238,4.4258,4.3997,4.3995,4.3994,4.3993,0,0,4.347,4.3562,4.3585,4.3625,4.3696,4.3757,4.3846,4.3925,4.397,4.4027,4.4102,4.4208,4.4184,4.4227,4.4232,4.4293,4.4414,4.4258,4.4259,4.4286,4.4565,4.4587,4.461,4.4404,4.4408,4.4411,4.4561,0,4.3603,4.3759,4.3775,4.3915,4.3991,4.398,4.4057,4.411,4.4135,4.4203,4.4231,4.4307,4.4268,4.4295,4.4355,4.4386,4.447,4.4375,4.4474,4.4478,4.446,4.4636,4.4657,4.4796,4.458,4.4584,4.4586,0,4.3777,4.3845,4.3994,4.406,4.4092,4.4161,4.4238,4.4303,4.4364,4.4378,4.443,4.4428,4.4521,4.4462,4.4591,4.4527,4.4569,4.4591,4.4597,4.4605,4.4538,4.465,4.4841,4.4862,4.4617,4.4614,4.4612,0,4.3875,4.4002,4.4109,4.4143,4.4221,4.4271,4.4306,4.4364,4.4413,4.448,4.4512,4.4588,4.4629,4.4689,4.4709,4.4664,4.4838,4.478,4.4854,4.4854,4.4889,4.4887,4.509,4.4917,4.4916,4.4916,4.4915,0,4.4021,4.4113,4.4155,4.422,4.4324,4.4342,4.4445,4.4477,4.453,4.4603,4.4598,4.4666,4.4688,4.4761,4.4777,4.4883,4.4901,4.4916,4.4919,4.4917,4.4915,4.4943,4.4934,4.4921,4.492,4.4919,4.4918,0,4.4145,4.4177,4.4293,4.4361,4.438,4.4454,4.4512,4.4576,4.4603,4.4696,4.4718,4.476,4.4846,4.4873,4.4975,4.4986,4.5111,4.5105,4.5091,4.5091,4.5164,4.5158,4.5393,4.5426,4.523,4.5232,4.5234,0,4.4237,4.4308,4.4385,4.4435,4.4473,4.4552,4.4604,4.4626,4.4679,4.4758,4.4814,4.49,4.4969,4.5107,4.5146,4.5226,4.5223,4.53,4.5234,4.5231,4.5226,4.5221,4.523,4.5312,4.5314,4.5315,4.5317,0,4.4396,4.441,4.4484,4.4566,4.4628,4.4693,4.4755,4.4796,4.4828,4.4888,4.4978,4.5033,4.5141,4.5227,4.5309,4.5345,4.5338,4.5338,4.536,4.5357,4.5347,4.5355,4.5125,4.5332,4.533,4.5329,4.5328,4.5328,4.4507,4.4572,4.4638,4.4723,4.4774,4.4834,4.4899,4.4937,4.5012,4.5103,4.5112,4.5209,4.5274,4.5384,4.5426,4.5503,4.548,4.5511,4.5519,4.5526,4.5533,4.5336,4.5518,4.5517,4.5517,4.5517,4.5516,0,4.4667,4.4711,4.4789,4.4879,4.4947,4.4937,4.5008,4.5064,4.5151,4.5213,4.5283,4.5389,4.5474,4.5523,4.5608,4.5661,4.566,4.5683,4.5679,4.5688,4.5547,4.5521,4.5683,4.5683,4.5683,4.5683,4.5683,4.5683,4.4759,4.4869,4.4892,4.5029,4.5072,4.5169,4.5211,4.5267,4.5317,4.5436,4.5508,4.554,4.5598,4.5689,4.5768,4.578,4.5812,4.5838,4.5848,4.5715,4.5697,4.5681,4.5656,4.5844,4.5845,4.5982,4.5984,4.5985]},{"header":{"parameterUnit":"m.s-1","parameterCategory":1,"la1":30.2991,"la2":30.254,"lo1":-89.0895,"lo2":-89.0444,"dy":0.0017,"dx":0.0017,"nx":28,"ny":28,"refTime":"2025-07-27T21:00:00:Z","depth":0,"parameterNumber":3,"parameterNumberName":"V-component_of_WINDS"},"data":[0,0,0,0,0,0,0,0,0,0,0,0,0,0,0,0,0,0,0,0,0,0,0,0,0,0,0,0,0,0,0,0,0,0,0,0,0,0,0,0,0,0,0,0,0,0,0,0,0,0,0,0,0,0,0,0,0,0,-1.9961,-1.9963,0,-2.012,-2.0121,-2.0123,-2.0139,-2.0137,-2.0136,-2.0134,-2.0292,-2.0298,-2.0303,0,0,0,0,0,0,0,0,0,0,0,0,0,-1.9667,-1.9673,-1.9961,-1.9963,-1.9965,-2.0119,-2.0121,-2.0124,-2.0139,-2.0137,-2.0135,-2.0134,-2.029,-2.0297,-2.0304,0,0,0,0,0,0,0,0,0,0,0,0,0,-1.9807,-1.9674,-1.9961,-1.9991,-1.9996,-2.0119,-2.0122,-2.0124,-2.014,-2.0137,-2.0135,-2.0133,-2.0288,-2.0296,-2.0305,-2.0407,0,0,-2.0331,-2.0335,0,0,0,0,0,0,0,0,-1.9799,-1.9818,-1.9985,-1.999,-1.9995,-2.0107,-2.0076,-2.0219,-2.014,-2.0085,-2.0134,-2.0131,-2.0232,-2.0245,-2.028,-2.0414,-2.0421,-2.0332,-2.0337,-2.0341,-2.0343,0,0,0,0,0,0,0,-1.9789,-1.9811,-2.0024,-1.9987,-1.9993,-1.9996,-2.0013,-2.0103,-2.017,-2.009,-2.0091,-2.011,-2.0234,-2.0272,-2.0284,-2.0423,-2.0332,-2.0339,-2.0345,-2.0348,-2.0649,-2.0651,0,0,0,0,0,0,-1.9775,-1.9803,-2.0019,-2.0028,-1.9889,-2.0003,-2.0022,-2.0073,-2.0169,-2.0182,-2.0112,-2.011,-2.0259,-2.0274,-2.029,-2.0417,-2.0341,-2.0349,-2.0354,-2.0646,-2.0649,-2.0652,0,0,0,0,0,0,-1.9768,-1.9794,-2.0012,-1.9916,-1.9944,-2.0011,-2.0068,-2.0078,-2.0116,-2.0186,-2.0198,-2.0138,-2.0257,-2.0278,-2.0378,-2.0422,-2.0353,-2.036,-2.0643,-2.0647,-2.0651,-2.067,0,0,0,0,0,0,-1.976,-1.9791,-1.9832,-1.9917,-1.9949,-2.0099,-2.0071,-2.0083,-2.0131,-2.013,-2.0214,-2.0226,-2.0257,-2.0365,-2.0387,-2.0433,-2.0367,-2.0639,-2.0645,-2.065,-2.0666,-2.0674,-2.0682,0,0,0,0,0,-1.9749,-1.983,-1.9834,-1.986,-2.0002,-2.0102,-2.012,-2.0156,-2.0134,-2.0175,-2.022,-2.0223,-2.0413,-2.0375,-2.0399,-2.0449,-2.0636,-2.0643,-2.0649,-2.0662,-2.0673,-2.0682,0,0,0,0,0,0,-1.9747,-1.9842,-1.9847,-1.9958,-2.0022,-2.0104,-2.0157,-2.0166,-2.0236,-2.0232,-2.0272,-2.029,-2.039,-2.0429,-2.0385,-2.0553,-2.0522,-2.0534,-2.0524,-2.0535,-2.0542,-2.0532,-2.0374,0,0,0,0,0,-1.9759,-1.9834,-1.9912,-2.0002,-2.0034,-2.009,-2.0135,-2.0157,-2.0224,-2.0251,-2.0304,-2.0367,-2.0442,-2.049,-2.0562,-2.067,-2.0689,-2.0716,-2.0724,-2.073,-2.0741,-2.0802,-2.0815,-2.0673,-2.0673,-2.0673,0,0,-1.9786,-1.9847,-1.9891,-2.0004,-2.0056,-2.0132,-2.0113,-2.0193,-2.025,-2.0263,-2.0362,-2.0402,-2.0476,-2.0581,-2.063,-2.0617,-2.0783,-2.0739,-2.0743,-2.075,-2.081,-2.0823,-2.0835,-2.0678,-2.0677,-2.0676,0,0,-1.9874,-1.9927,-2.0009,-2.0061,-2.0141,-2.0177,-2.0197,-2.0278,-2.0306,-2.0406,-2.0418,-2.0484,-2.0611,-2.0663,-2.0706,-2.0813,-2.0818,-2.0835,-2.0877,-2.0936,-2.0948,-2.0958,-2.0997,-2.1011,-2.0844,-2.0844,-2.0844,0,-1.9896,-2.0013,-2.0049,-2.013,-2.0179,-2.0195,-2.0278,-2.0326,-2.0425,-2.0458,-2.0441,-2.0602,-2.0652,-2.077,-2.0796,-2.083,-2.0853,-2.0827,-2.0943,-2.0954,-2.0964,-2.1002,-2.1016,-2.0846,-2.0846,-2.0845,-2.0845,0,-2.0037,-2.0117,-2.0173,-2.027,-2.0325,-2.0406,-2.0454,-2.0504,-2.0521,-2.0558,-2.0659,-2.0721,-2.0806,-2.0835,-2.0851,-2.0955,-2.0945,-2.0935,-2.0906,-2.0978,-2.1015,-2.103,-2.0848,-2.0848,-2.0847,-2.0847,0,0,-2.013,-2.0246,-2.0266,-2.031,-2.0398,-2.0461,-2.0541,-2.0626,-2.067,-2.0736,-2.0805,-2.0912,-2.0904,-2.0953,-2.0974,-2.1026,-2.1108,-2.101,-2.1013,-2.1028,-2.1228,-2.1236,-2.1253,-2.1111,-2.1114,-2.1116,-2.1222,0,-2.0229,-2.0377,-2.0412,-2.0538,-2.0612,-2.0628,-2.0698,-2.0759,-2.0796,-2.0863,-2.0903,-2.0979,-2.0962,-2.0992,-2.1043,-2.1087,-2.1149,-2.1079,-2.1176,-2.1179,-2.116,-2.1272,-2.1281,-2.1379,-2.1237,-2.1239,-2.1241,0,-2.0366,-2.0438,-2.0572,-2.0651,-2.0683,-2.0746,-2.0827,-2.0891,-2.096,-2.0983,-2.1038,-2.1054,-2.1138,-2.1103,-2.1219,-2.1171,-2.1211,-2.1239,-2.1243,-2.1256,-2.1216,-2.1289,-2.1411,-2.1426,-2.1263,-2.1261,-2.126,0,-2.0423,-2.0552,-2.0649,-2.0686,-2.078,-2.0825,-2.0865,-2.0932,-2.0981,-2.105,-2.1082,-2.1159,-2.1202,-2.1261,-2.1298,-2.1268,-2.1411,-2.1379,-2.1433,-2.1432,-2.1464,-2.1462,-2.1597,-2.1486,-2.1486,-2.1486,-2.1485,0,-2.0532,-2.0614,-2.0676,-2.0737,-2.0828,-2.0866,-2.0955,-2.0996,-2.1055,-2.1122,-2.1138,-2.1201,-2.1244,-2.1312,-2.134,-2.1433,-2.1451,-2.1472,-2.1479,-2.1472,-2.147,-2.1501,-2.1496,-2.149,-2.1489,-2.1488,-2.1487,0,-2.0612,-2.0657,-2.0765,-2.0845,-2.0867,-2.0931,-2.0999,-2.1057,-2.1093,-2.1179,-2.12,-2.1257,-2.1338,-2.138,-2.148,-2.1499,-2.1604,-2.1605,-2.1582,-2.1585,-2.1638,-2.1633,-2.1799,-2.1823,-2.1694,-2.1696,-2.1696,0,-2.068,-2.0744,-2.0831,-2.0878,-2.092,-2.0996,-2.1046,-2.1084,-2.1136,-2.1219,-2.1267,-2.1349,-2.1417,-2.1545,-2.1595,-2.1671,-2.1676,-2.1729,-2.1688,-2.1679,-2.168,-2.1677,-2.1684,-2.1737,-2.1738,-2.1739,-2.174,0,-2.0797,-2.0816,-2.0888,-2.0969,-2.1029,-2.1094,-2.1158,-2.1195,-2.1243,-2.13,-2.1384,-2.1437,-2.154,-2.1621,-2.1701,-2.1741,-2.175,-2.1752,-2.1769,-2.1764,-2.1749,-2.176,-2.1604,-2.1749,-2.1748,-2.1747,-2.1747,-2.1747,-2.0875,-2.0932,-2.1003,-2.1083,-2.1135,-2.1195,-2.1254,-2.1298,-2.1369,-2.1458,-2.1475,-2.1564,-2.163,-2.1739,-2.1782,-2.1851,-2.184,-2.1864,-2.187,-2.1876,-2.188,-2.1736,-2.1865,-2.1865,-2.1865,-2.1864,-2.1864,0,-2.0994,-2.104,-2.1113,-2.1203,-2.1266,-2.1268,-2.1338,-2.1391,-2.147,-2.1531,-2.1598,-2.1694,-2.1773,-2.1828,-2.1908,-2.1953,-2.1958,-2.1973,-2.1971,-2.1981,-2.1884,-2.1863,-2.1967,-2.1967,-2.1967,-2.1967,-2.1967,-2.1967,-2.1064,-2.1162,-2.1189,-2.1313,-2.1358,-2.1447,-2.1487,-2.1541,-2.1591,-2.1699,-2.1765,-2.18,-2.1859,-2.1944,-2.2016,-2.2029,-2.2059,-2.2074,-2.2088,-2.1998,-2.1987,-2.1977,-2.1957,-2.2079,-2.2079,-2.2179,-2.218,-2.218]}]]